Regional Weather Roundup
Issued by NWS

Home | Current Version | Previous Version | Text Only | Print | Product List | Glossary Off
Versions: 1 2 3 4 5 6 7 8 9 10 11 12 13 14 15 16 17 18 19 20 21 22 23 24 25 26 27

000
ASUS45 KTFX 170310
RWRMT
MONTANA REGIONAL WEATHER ROUNDUP
NATIONAL WEATHER SERVICE GREAT FALLS MT
800 PM MST MON JAN 16 2017

NOTE: "FAIR" INDICATES FEW OR NO CLOUDS BELOW 12000 FEET WITH NO
SIGNIFICANT WEATHER AND/OR OBSTRUCTIONS TO VISIBILITY.

MTZ001>007-043-170400-
WEST OF THE DIVIDE

CITY           SKY/WX    TMP DP  RH WIND       PRES   REMARKS
KALISPELL      CLOUDY    11   9  92 N3        30.25F FOG
MISSOULA       CLEAR      6   2  83 E5        30.29R
BUTTE          CLOUDY     1  -4  79 CALM      30.14F
MULLAN PASS    CLEAR     23  17  78 S12       30.09S WCI  12
ANACONDA         N/A     12   3  67 SW7       30.15F WCI   2
DEER LODGE       N/A      7   0  72 W3        30.20F
EUREKA           N/A     12   7  79 CALM      30.26F
HAMILTON         N/A      7   1  78 CALM      30.22F
RONAN            N/A      3  -3  76 MISG      30.24F
$$

MTZ008-052>055-170400-
SOUTHWEST MONTANA

CITY           SKY/WX    TMP DP  RH WIND       PRES   REMARKS
BOZEMAN        CLOUDY     5  -1  76 S8        30.16F WCI  -8
DILLON         CLOUDY    16   0  49 S7        30.15F WCI   6
W YELLOWSTONE  CLOUDY    -4  -8  84 CALM      30.20S
ENNIS          CLEAR     14   7  73 S6        30.19F WCI   5
TWIN BRIDGES     N/A     12  -2  53 E5        30.13F
$$

MTZ009-010-012-014-046-048-049-054-170400-
EAST SLOPES AND CENTRAL MONTANA

CITY           SKY/WX    TMP DP  RH WIND       PRES   REMARKS
CUT BANK       PTCLDY    36  20  52 W28       29.84F WCI  23
GREAT FALLS    CLOUDY    32  18  56 S23       29.94F WCI  19
MALMSTROM AFB  CLOUDY    31  21  66 SW20      29.94F WCI  19
HELENA         CLOUDY     7   1  76 W3        30.15F
AUGUSTA          N/A     37  15  40 W24G33    29.91F WCI  26
BOWMANS CRNR     N/A     26  15  63 S29       29.93F WCI  10
CHOTEAU          N/A     41  18  38 SW13G18   29.92F
CONRAD           N/A     19  15  84 S5        29.91F
FAIRFIELD        N/A     29  18  61 S23       29.91F WCI  16
POWER            N/A     28  18  66 SW13      29.91F WCI  17
RAYNESFORD       N/A     37  16  41 S26       29.94F WCI  26
ULM              N/A     29  18  63 MISG      29.97F
$$

MTZ011-013-016-021-045-047-050-051-170400-
NORTH CENTRAL MONTANA

CITY           SKY/WX    TMP DP  RH WIND       PRES   REMARKS
HAVRE          CLOUDY    16  11  80 CALM      29.91F
LEWISTOWN      CLOUDY    20  10  65 SE8       29.96F WCI  10
N BAR RANCH      N/A     27  12  54 W9        29.98F WCI  17
CHINOOK          N/A     12   9  85 E8        29.94F WCI   1
DENTON           N/A     20  13  73 S14       29.92F WCI   7
FORT BENTON      N/A     30  18  59 MISG      29.94F
GEYSER           N/A     35  17  46 W16       29.93F WCI  26
GRASS RANGE      N/A     23  12  62 CALM      29.93F
JUDITH GAP       N/A     23  11  60 SW12      29.96F WCI  12
ROY              N/A     29  15  54 MISG      29.94F
STANFORD         N/A     28  15  58 E3        29.94F
WINIFRED         N/A     31  15  52 SW8       29.93F WCI  24
$$

MTZ017>020-022>027-061-062-170400-
NORTHEAST MONTANA

CITY           SKY/WX    TMP DP  RH WIND       PRES   REMARKS
GLASGOW        CLOUDY    11   6  81 E10       30.00F WCI  -3
JORDAN           N/A     16   9  74 CALM      30.01F
SIDNEY         CLOUDY    10   6  84 S7        30.07F WCI  -1
WOLF POINT     CLOUDY     5   0  79 CALM      30.07S
PLENTYWOOD       N/A     12   9  85 SE8       30.01F WCI   1
POPLAR           N/A     10   7  85 W5        30.06S
SCOBEY           N/A     15   2  56 S1        29.98F
$$

MTZ028>42-056>058-170400-
SOUTHCENTRAL AND SOUTHEAST MONTANA

CITY           SKY/WX    TMP DP  RH WIND       PRES   REMARKS
BAKER          CLOUDY     6   2  83 CALM      30.07S
BILLINGS       CLOUDY    23   7  50 SW26G33   30.03F WCI   6
LIVINGSTON     CLOUDY    27  11  51 W18       30.07F WCI  14
MILES CITY     CLOUDY    13   4  67 S8        30.08R WCI   2
BIG TIMBER     CLEAR     32  12  43 W38       30.00F WCI  16
EKALAKA          N/A     19   5  54 SE6       30.01F WCI  11
FORSYTH          N/A     14   9  79 CALM      30.06F
HARLOWTON        N/A     31  13  45 NW30      29.99S WCI  17
LAUREL           N/A     18   5  56 SW10      30.03F WCI   6
$$

REGIONAL REPORTS...DAKOTAS

CITY           SKY/WX    TMP DP  RH WIND       PRES   REMARKS
WILLISTON      CLOUDY    11   9  92 S5        30.07F
MINOT          CLOUDY    18  13  80 SW14      30.02F WCI   4
DICKINSON      CLEAR     13   8  81 SW5       30.03S
BEACH            N/A     16  10  79 SW6       30.07F WCI   7
CROSBY           N/A     14  10  85 S17       30.04F WCI  -3
TIOGA            N/A     12  12 100 W6        30.05S WCI   3
WATFORD CITY     N/A      9   5  85 SW3       30.06F
BISMARCK       CLOUDY    12   8  84 NW3       30.08S
GRAND FORKS    CLOUDY     5   1  83 SW5       30.03F
FARGO          CLOUDY    10   7  87 W3        30.04F
BUFFALO SD       N/A     18  10  71 W9        29.99F WCI   7
RAPID CITY     CLEAR     25  13  60 N14       30.07F WCI  13
$$

REGIONAL REPORTS...WYOMING/IDAHO/WASHINGTON

CITY           SKY/WX    TMP DP  RH WIND       PRES   REMARKS
GILLETTE       CLOUDY    18   9  68 S10       30.05F WCI   6
SHERIDAN       CLOUDY    17   6  62 VRB6      30.04F WCI   9
BUFFALO WY     CLOUDY    23   8  52 S10       30.03F WCI  12
CODY           CLOUDY     8   1  73 SW5       30.06F
YELLOWSTONE LA   N/A     -5  -8  87 CALM      30.18R
IDAHO FALLS    CLOUDY    -4  -8  83 N7        30.32F WCI -18
SALMON         CLOUDY   -13 -17  84 CALM      30.45F
BOISE          CLEAR      4   0  83 SW5       30.42F FOG
SPOKANE        FOG       11   8  88 W5        30.22  VSB 3/4
$$

REGIONAL REPORTS...ALBERTA

CITY           SKY/WX    TMP DP  RH WIND       PRES   REMARKS
EDMONTON       MOCLDY    34  19  55 S5        29.46F
CALGARY        MOCLDY    39  23  52 S8        29.67F
LETHBRIDGE     MOCLDY    37  27  65 SW32G40   29.77F WCI  25
MEDICINE HAT   PTCLDY    34  21  60 SW18G24   29.77F WCI  23
WATERTON GATE    N/A     34  18  51 SW35G49     N/A  WCI  19
CARDSTON         N/A     41  21  45 SW14G20     N/A
MILK RIVER       N/A     37  25  60 SW15G21     N/A  WCI  28
$$

REGIONAL REPORTS...SASKATCHEWAN

CITY           SKY/WX    TMP DP  RH WIND       PRES   REMARKS
SWIFT CURRENT  CLEAR     23  16  74 SW25      29.80F WCI   7
REGINA         PTCLDY    18  14  86 SE7       29.93S WCI   8
SASKATOON      PTCLDY    25  18  74 S15       29.78F WCI  12
VAL MARIE        N/A     10   5  79 S8          N/A  WCI  -1
ROCKGLEN         N/A     21  14  73 SW15        N/A  WCI   8
ASSINIBOIA       N/A     25  19  80 S9          N/A  WCI  15
$$




USA.gov is the U.S. government's official web portal to all federal, state and local government web resources and services.